Regional Weather Roundup
Issued by NWS Memphis, TN

Home | Current Version | Previous Version | Text Only | Print | Product List | Glossary On
Versions: 1 2 3 4 5 6 7 8 9 10 11 12 13 14 15 16 17 18 19 20 21 22 23 24 25 26 27 28 29 30 31 32 33 34 35 36 37 38 39 40 41 42 43 44 45 46 47 48 49 50
000
ASUS44 KMEG 272010
RWRMEG
MEMPHIS CWA HOURLY WEATHER ROUNDUP
NATIONAL WEATHER SERVICE MEMPHIS TN
300 PM CDT THU AUG 27 2015

...WEST TENNESSEE...

CITY           SKY/WX    TMP DP  RH WIND       PRES   REMARKS
MEMPHIS INTL   MOSUNNY   83  55  38 NE12      30.07F
NWS MEMPHIS      N/A     81 N/A N/A MISG        N/A
JACKSON        PTSUNNY   81  59  47 E8        30.09F
LEXINGTON      MOSUNNY   79  54  41 N10       30.09S
DYERSBURG      MOSUNNY  N/A N/A N/A MISG        N/A
UNION CITY     PTSUNNY   79  59  50 NE8       30.10S
PARIS          PTSUNNY   77  57  50 VRB5      30.12S


...EASTERN ARKANSAS...

CITY           SKY/WX    TMP DP  RH WIND       PRES   REMARKS
JONESBORO      MOSUNNY   79  59  50 N8        30.11S
WEST MEMPHIS   SUNNY     82  58  43 NE12      30.08F
BATESVILLE     MOSUNNY   81  57  44 CALM      30.12S
NEWPORT        SUNNY     81  60  48 NW6       30.12F
WALNUT RIDGE   SUNNY     81  55  41 NE7       30.11F
BLYTHEVILLE    MOSUNNY   84  60  44 NE9       30.10F
NW BLYTHEVILLE MOSUNNY   82  61  47 N9        30.10F
SEARCY         PTSUNNY   82  60  47 N6        30.11F
STUTTGART      MOSUNNY   81  57  44 N9        30.09F
PINE BLUFF     MOSUNNY   82  56  40 N9        30.09F
MONTICELLO     MOSUNNY   85  58  39 VRB7      30.06F


...NORTH MISSISSIPPI...

CITY           SKY/WX    TMP DP  RH WIND       PRES   REMARKS
TUPELO         MOSUNNY   82  55  39 NE12      30.07R
OXFORD         MOSUNNY   81  55  41 NE10      30.09F
OLIVE BRANCH   MOSUNNY   81  55  41 E12       30.08F
TUNICA         SUNNY     81  59  47 N13       30.08F
CLARKSDALE     SUNNY     82  59  44 N8        30.07F
CORINTH        PTSUNNY   81  55  41 N7        30.07F
GREENWOOD      MOSUNNY   85  58  39 VRB6      30.04F
COLUMBUS       SUNNY     83  60  44 NE12      30.02F
STARKVILLE     FAIR      81  55  41 N8        30.04S
GOLDEN TRIANGL MOSUNNY   84  57  39 NE7G16    30.02F


...SOUTHEAST MISSOURI...

CITY           SKY/WX    TMP DP  RH WIND       PRES   REMARKS
WEST PLAINS    PTSUNNY   77  55  46 SE3       30.16F
POPLAR BLUFF   MOSUNNY   81  57  43 NE5       30.10F
CAPE GIRARDEAU MOSUNNY   81  58  45 NE6       30.11F


...NORTHWEST ALABAMA...

CITY           SKY/WX    TMP DP  RH WIND       PRES   REMARKS
MUSCLE SHOALS  SUNNY     83  58  42 VRB5      30.06S


...MIDDLE TENNESSEE...

CITY           SKY/WX    TMP DP  RH WIND       PRES   REMARKS
NASHVILLE      MOSUNNY   83  49  30 VRB5      30.09R
CLARKSVILLE    MOSUNNY   82  54  37 E7        30.10S
COLUMBIA       SUNNY     82  57  42 N7        30.06F


...WESTERN KENTUCKY...

CITY           SKY/WX    TMP DP  RH WIND       PRES   REMARKS
PADUCAH        PTSUNNY   79  58  48 NE7       30.11F
FORT CAMPBELL  MOSUNNY   80  56  43 E9        30.10S


...CENTRAL ARKANSAS...

CITY           SKY/WX    TMP DP  RH WIND       PRES   REMARKS
LITTLE ROCK    CLOUDY    87  57  35 N3        30.09F


SKY/WX REPORTED AS FAIR MEANS FEW OR NO CLOUDS BELOW
12 THOUSAND FEET.




USA.gov is the U.S. government's official web portal to all federal, state and local government web resources and services.